Lexington Weather

Lexington, Massachusetts, USA

46°F
9/19/2020 8:48am 
  • Lexington Conditions: Clear
  • Temperature: 46.0°F / 7.8°CWarmer 2.8°F than last hour.
  • Dew Point: 36.1°FIncreased 0.7°Fsince last hour.
  • Relative Humidity: 68%Decreased 6.0% since last hour.
  • Wind: Wind from ENE ENE Calm, 10-min avg: 1 mph, gust: 2 mph
  • Barometer: 30.26 inRising 0.02  inHg/hr Rising Slowly
  • Visibility: 10 miles
  • Rain Today: 0.00 in
  •   
Southeast Middlesex County - Special Weather Statement
 - SEE ALL NEARBY ALERTS -

Regional Weather Roundup
for Boston / Norton, MA

        
000
ASUS41 KBOX 121904
RWRBOX

REGIONAL WEATHER ROUNDUP
NATIONAL WEATHER SERVICE BOSTON/NORTON MA
300 PM EDT SAT SEP 12 2020

NOTE:  "FAIR" INDICATES FEW OR NO CLOUDS BELOW 12,000 FEET WITH NO 
SIGNIFICANT WEATHER AND/OR OBSTRUCTIONS TO VISIBILITY.

MAZALL-122000-
EASTERN MASSACHUSETTS
  
CITY           SKY/WX    TMP DP  RH WIND       PRES   REMARKS
BOSTON         MOSUNNY   65  48  54 E10       30.35F                  
BEVERLY        SUNNY     67  48  50 S10       30.34F                  
LAWRENCE       PTSUNNY   68  50  52 VRB7      30.35F                  
BEDFORD        MOSUNNY   70  48  45 SE15      30.33F                  
BLUE HILL        N/A     66  49  54 E7        30.33F                  
NORWOOD        SUNNY     70  48  45 E10       30.33F                  
MARSHFIELD     SUNNY     68  48  49 E12       30.34F                  
PLYMOUTH       SUNNY     67  48  50 E13G18    30.34F                  
TAUNTON        SUNNY     71  47  42 E9        30.32F                  
NEW BEDFORD    SUNNY     71  46  40 E8        30.31F                  
$$

MAZALL-122000-
CAPE COD AND THE ISLANDS
  
CITY           SKY/WX    TMP DP  RH WIND       PRES   REMARKS
FALMOUTH       SUNNY     68  46  45 NE17      30.33F                  
HYANNIS        SUNNY     68  45  43 E9G16     30.31F                  
CHATHAM        SUNNY     66  45  46 E10       30.34F                  
PROVINCETOWN   SUNNY     68  50  52 E13       30.35F                  
NANTUCKET      SUNNY     66  51  58 E16       30.32F                  
MARTHAS VNYRD  SUNNY     69  47  45 E18G25    30.32F                  
$$
 
MAZALL-122000-
CENTRAL AND WESTERN MASSACHUSETTS
  
CITY           SKY/WX    TMP DP  RH WIND       PRES   REMARKS
WORCESTER      MOSUNNY   66  47  50 E9        30.34S                  
FITCHBURG      PTSUNNY   68  48  48 SE8       30.34F                  
ORANGE         MOSUNNY   69  47  45 S6        30.33F                  
SPRINGFIELD    PTSUNNY   72  49  44 E6        30.30F                  
WESTFIELD      MOSUNNY   71  51  49 VRB5      30.30F                  
NORTH ADAMS    MOSUNNY   69  50  50 SE9       30.30F                  
PITTSFIELD     MOSUNNY   68  50  52 VRB7      30.30F                  
$$
 
RIZALL-122000-
RHODE ISLAND
  
CITY           SKY/WX    TMP DP  RH WIND       PRES   REMARKS
PROVIDENCE     PTSUNNY   71  48  43 VRB3G16   30.32F                  
NEWPORT        SUNNY     70  51  51 SE9       30.31F                  
BLOCK ISLAND   SUNNY     66  49  54 E16G22    30.32F                  
SMITHFIELD     SUNNY     71  47  42 E10       30.33S                  
WESTERLY       SUNNY     69  51  52 E14       30.31F                  
$$
 
CTZALL-122000-
CONNECTICUT
  
CITY           SKY/WX    TMP DP  RH WIND       PRES   REMARKS
BRADLEY INTL   PTSUNNY   74  47  38 NE8       30.30F                  
HARTFORD       SUNNY     73  48  41 E3        30.29F                  
BRIDGEPORT     SUNNY     70  52  52 E12       30.31F                  
DANBURY        SUNNY     69  51  52 VRB6      30.31F                  
GROTON         SUNNY     68  54  60 SE17      30.30S                  
NEW HAVEN      SUNNY     72  54  53 E13       30.31F                  
CHESTER        NOT AVBL                                               
MERIDEN        SUNNY     73  48  41 SE6       30.29F                  
WILLIMANTIC    SUNNY     72  47  40 VRB5      30.30F                  
OXFORD         MOSUNNY   70  51  51 VRB3      30.32F                  
$$

MEZ002-015-021-024-NHZ003-005-008-011-012-014-VTZ005-008-122000-
NORTHERN NEW ENGLAND
  
CITY           SKY/WX    TMP DP  RH WIND       PRES   REMARKS
PORTLAND ME    MOSUNNY   67  42  40 S9        30.36S                  
BANGOR ME      MOSUNNY   68  42  38 W5        30.32F                  
CONCORD NH     MOSUNNY   71  46  40 S14       30.32F                  
MANCHESTER NH  PTSUNNY   71  47  42 VRB6      30.31F                  
NASHUA NH      PTSUNNY   69  50  50 VRB6      30.33F                  
PORTSMOUTH NH  MOSUNNY   67  46  47 E10       30.33F                  
JAFFREY NH     MOSUNNY   66  47  50 VRB6      30.34F                  
KEENE NH       MOSUNNY   69  49  48 VRB7      30.32F                  
BURLINGTON VT  PTSUNNY   72  47  40 S12       30.26F                  
MT. WASHINGTON MOSUNNY   46  34  61 SW12        N/A                   
$$

NYZ052-076-122000-
EASTERN NEW YORK
  
CITY           SKY/WX    TMP DP  RH WIND       PRES   REMARKS
ALBANY         PTSUNNY   67  52  58 S14       30.29F                  
NEW YORK CITY  PTSUNNY   73  55  53 NE14      30.29S                  
$$
 
ANZALL-122000-
MARINE OBSERVATIONS
  
STATION/POSITION TIME  TEMP    WIND        PRES    VSBY  WAVE
                       AIR SEA DIR/SP/G                  HT/PER
                 (UTC) (F)     (DEG/KT/KT) (MB)    (MI)  (FT/S)
BOSTON BUOY      1850   63 68  110/  8/ 12 1026.6F         3/ 6
BUZZARDS BAY     1800           80/ 16/ 19 1028.0F
NANTUCKET SOUND  1850      71   70/ 16/ 19   N/A           2/ 4
MASS BAY-STELLWA 1804   62     130/  8/ 10 1026.1F  1 7/8  3/ 5
ISLE OF SHOALS   1800   62     110/  6/  7 1027.7F
S OF BLOCK IS    1826      70                N/A           6/ 6
$$

......................KEY.........................
  SKY/WX - SKY CONDITION/PRESENT WEATHER
  TMP    - TEMPERATURE IN FAHRENHEIT
  DWPT   - DEWPOINT IN FAHRENHEIT
  RH     - RELATIVE HUMIDITY IN PERCENT
  WIND   - DIRECTION AND SPEED IN MPH
  PRES   - MEAN SEA LEVEL PRESSURE IN INCHES OF HG
  WCI    - WIND CHILL INDEX
  VSB    - VISIBILITY IN MILES
  HX     - HEAT INDEX
  TC     - TEMPERATURE IN CELSIUS
  VRB    - VARIABLE WIND DIRECTION
  N/A    - NOT AVAILABLE
  
      

Other recent Regional Weather Roundups

Sat Sep 19, 8:04am

Sat Sep 19, 7:04am

Sat Sep 19, 6:04am

Sat Sep 19, 5:04am

Sat Sep 19, 4:04am

Sat Sep 19, 3:04am

Sat Sep 19, 2:04am

Sat Sep 19, 1:04am

Sat Sep 19, 12:04am

Fri Sep 18, 11:05pm

Fri Sep 18, 10:04pm

Fri Sep 18, 9:04pm

Fri Sep 18, 8:04pm

Fri Sep 18, 7:04pm

Fri Sep 18, 6:04pm

Fri Sep 18, 5:05pm

Fri Sep 18, 4:04pm

Fri Sep 18, 3:05pm

Fri Sep 18, 2:04pm

Fri Sep 18, 1:04pm

Fri Sep 18, 12:04pm

Fri Sep 18, 11:05am

Fri Sep 18, 10:05am

Fri Sep 18, 9:04am

Fri Sep 18, 8:04am

Fri Sep 18, 7:04am

Fri Sep 18, 6:04am

Fri Sep 18, 5:04am

Fri Sep 18, 4:04am

Fri Sep 18, 3:04am

Fri Sep 18, 2:04am

Fri Sep 18, 1:04am

Fri Sep 18, 12:04am

Thu Sep 17, 11:05pm

Thu Sep 17, 10:04pm

Thu Sep 17, 9:04pm

Thu Sep 17, 8:05pm

Thu Sep 17, 7:04pm

Thu Sep 17, 6:04pm

Thu Sep 17, 5:04pm

Thu Sep 17, 4:04pm

Thu Sep 17, 3:05pm

Thu Sep 17, 2:04pm

Thu Sep 17, 1:04pm

Thu Sep 17, 12:04pm

Thu Sep 17, 11:04am

Thu Sep 17, 10:04am

Thu Sep 17, 9:04am

Thu Sep 17, 8:04am

Thu Sep 17, 7:04am

Thu Sep 17, 6:04am

Thu Sep 17, 5:04am

Thu Sep 17, 4:04am

Thu Sep 17, 3:04am

Thu Sep 17, 2:05am

Thu Sep 17, 1:05am

Thu Sep 17, 12:04am

Wed Sep 16, 11:04pm

Wed Sep 16, 10:04pm

Wed Sep 16, 9:04pm

Wed Sep 16, 8:05pm

Wed Sep 16, 7:04pm

Wed Sep 16, 6:04pm

Wed Sep 16, 5:04pm

Wed Sep 16, 4:04pm

Wed Sep 16, 3:04pm

Wed Sep 16, 2:04pm

Wed Sep 16, 1:04pm

Wed Sep 16, 12:04pm

Wed Sep 16, 11:04am

Wed Sep 16, 10:04am

Wed Sep 16, 9:04am

Wed Sep 16, 8:04am

Wed Sep 16, 7:04am

Wed Sep 16, 6:04am

Wed Sep 16, 5:04am

Wed Sep 16, 4:04am

Wed Sep 16, 3:04am

Wed Sep 16, 2:04am

Wed Sep 16, 1:04am

Wed Sep 16, 12:05am

Tue Sep 15, 11:04pm

Tue Sep 15, 10:04pm

Tue Sep 15, 9:04pm

Tue Sep 15, 8:04pm

Tue Sep 15, 7:04pm

Tue Sep 15, 6:04pm

Tue Sep 15, 5:04pm

Tue Sep 15, 4:05pm

Tue Sep 15, 3:04pm

Tue Sep 15, 2:04pm

Tue Sep 15, 1:04pm

Tue Sep 15, 12:04pm

Tue Sep 15, 11:04am

Tue Sep 15, 10:04am

Tue Sep 15, 9:04am

Tue Sep 15, 8:04am

Tue Sep 15, 7:04am

Tue Sep 15, 6:04am

Tue Sep 15, 5:04am

Tue Sep 15, 4:04am

Tue Sep 15, 3:04am

Tue Sep 15, 2:04am

Tue Sep 15, 1:04am

Tue Sep 15, 12:05am

Mon Sep 14, 11:04pm

Mon Sep 14, 10:04pm

Mon Sep 14, 9:04pm

Mon Sep 14, 8:04pm

Mon Sep 14, 7:04pm

Mon Sep 14, 6:04pm

Mon Sep 14, 5:04pm

Mon Sep 14, 4:05pm

Mon Sep 14, 3:04pm

Mon Sep 14, 2:05pm

Mon Sep 14, 1:04pm

Mon Sep 14, 12:04pm

Mon Sep 14, 11:04am

Mon Sep 14, 10:05am

Mon Sep 14, 9:04am

Mon Sep 14, 8:04am

Mon Sep 14, 7:04am

Mon Sep 14, 6:04am

Mon Sep 14, 5:04am

Mon Sep 14, 4:04am

Mon Sep 14, 3:04am

Mon Sep 14, 2:04am

Mon Sep 14, 1:04am

Mon Sep 14, 12:04am

Sun Sep 13, 11:05pm

Sun Sep 13, 10:04pm

Sun Sep 13, 9:04pm

Sun Sep 13, 8:04pm

Sun Sep 13, 7:05pm

Sun Sep 13, 6:05pm

Sun Sep 13, 5:05pm

Sun Sep 13, 4:04pm

Sun Sep 13, 3:04pm

Sun Sep 13, 2:04pm

Sun Sep 13, 1:04pm

Sun Sep 13, 12:04pm

Sun Sep 13, 11:05am

Sun Sep 13, 10:04am

Sun Sep 13, 9:04am

Sun Sep 13, 8:04am

Sun Sep 13, 7:04am

Sun Sep 13, 6:04am

Sun Sep 13, 5:04am

Sun Sep 13, 4:04am

Sun Sep 13, 3:04am

Sun Sep 13, 2:04am

Sun Sep 13, 1:04am

Sun Sep 13, 12:04am

Sat Sep 12, 11:04pm

Sat Sep 12, 10:04pm

Sat Sep 12, 9:04pm

Sat Sep 12, 8:04pm

Sat Sep 12, 7:05pm

Sat Sep 12, 6:04pm

Sat Sep 12, 5:04pm

Sat Sep 12, 4:05pm

Sat Sep 12, 2:04pm

Sat Sep 12, 1:05pm

Sat Sep 12, 12:04pm

Sat Sep 12, 11:04am

Sat Sep 12, 10:04am

Sat Sep 12, 9:04am

Meta data:

ID: 3784e953-fc8f-4704-b985-915ccc892c78
Link: https://api.weather.gov/products/3784e953-fc8f-4704-b985-915ccc892c78